Flag for Cuba Weather past 2 weeks in Holguín, Cuba

Now
90 °F

Scattered clouds.


Feels Like: 92 °F
Forecast: 74 / 91 °F
Wind: 6 mph from North

Location: Holguin Civ / Mil

Current Time: Jul 29, 2014 at 12:59:31 PM

Latest Report: Jul 29, 2014 at 11:50 AM


Visibility: N/A

Pressure: 30.04 "Hg

Humidity: 46%

Dew point: 66 °F

Location of HolguínLocation

Historic Weather in Holguín — Graph

°F

Holguín temperature yesterday

Maximum temperature yesterday: 93 °F (at 1:51 PM)
Minimum temperature yesterday: 70 °F (at 3:50 AM)
Average temperature yesterday: 81 °F

Past Weeks' High & Low Weather Summary

 TemperatureHumidityPressure
High97 °F (Jul 27, 2:51 PM)94% (Jul 16, 10:52 PM)30.15 "Hg (Jul 16, 10:52 PM)
Low70 °F (Jul 16, 7:50 PM)34% (Jul 15, 3:51 PM)29.92 "Hg (Jul 15, 3:51 PM)
Average82 °F73%30.02 "Hg
* Reported Jul 14 11:53 AM — Jul 29 11:50 AM, Holguín, Weather by CustomWeather, © 2014

Note: Actual official high and low records may vary slightly from our data, if they occured in-between our weather recording intervals... More about our weather records

Advertising

Holguín weather history for previous 24 hours

 ConditionsComfort  
Time TempWeatherWind HumidityBarometerVisibility
11:50 AM
Jul 29
90 °FScattered clouds.6 mph46%30.04 "HgN/A
10:50 AM88 °FPassing clouds.6 mph52%30.04 "Hg5 mi
9:51 AM84 °FSunny.6 mph66%30.04 "Hg5 mi
8:50 AM81 °FFog.7 mph79%30.01 "Hg4 mi
7:50 AM77 °FFog.7 mph94%30.01 "Hg3 mi
6:51 AM75 °FLight fog.3 mph94%30.01 "Hg1 mi
5:51 AM75 °FFog.1 mph94%30.01 "Hg1 mi
4:51 AM75 °FFog.5 mph94%30.01 "Hg4 mi
3:50 AM75 °FClear.6 mph94%30.01 "Hg5 mi
2:50 AM77 °FClear.5 mph89%30.01 "Hg5 mi
1:50 AM77 °FClear.6 mph89%30.01 "Hg5 mi
12:50 AM77 °FClear.5 mph89%30.04 "Hg5 mi
11:50 PM
Jul 28
77 °FClear.1 mph89%30.07 "Hg5 mi
10:50 PM79 °FClear.3 mph84%30.07 "Hg5 mi
9:50 PM81 °FPassing clouds.5 mph79%30.07 "Hg5 mi
8:50 PM81 °FPassing clouds.10 mph79%30.04 "Hg5 mi
7:55 PM82 °FPassing clouds.10 mph74%30.04 "Hg5 mi
6:55 PM86 °FPassing clouds.16 mph62%30.01 "Hg5 mi
5:51 PM88 °FPassing clouds.13 mph62%29.98 "Hg6 mi
4:50 PM91 °FPassing clouds.10 mph56%29.98 "Hg6 mi
3:50 PM91 °FScattered clouds.7 mph59%30.01 "HgN/A
2:51 PM93 °FPartly sunny.5 mph44%30.01 "Hg6 mi
1:51 PM93 °FPassing clouds.6 mph47%30.01 "Hg6 mi
12:55 PM91 °FPassing clouds.5 mph52%30.04 "Hg6 mi
Weather by CustomWeather, © 2014

See weather overviewHow to use our weather pages